Time,TemperatureF,DewpointF,PressureIn,WindDirection,WindDirectionDegrees,WindSpeedMPH,WindSpeedGustMPH,Humidity,HourlyPrecipIn,Conditions,Clouds,dailyrainin,SoftwareType,DateUTC
2013-11-23 00:00:00,55.4,36.6,30.02,ESE,102,4.3,10.5,49,0.00,,-RA,0.00,VWS V14.01,2013-11-23 08:00:00,
2013-11-23 00:10:00,55.4,36.6,30.02,ENE,72,7.5,11.5,49,0.00,,-RA,0.00,VWS V14.01,2013-11-23 08:10:00,
2013-11-23 00:20:00,55.4,36.6,30.02,ENE,61,3.8,9.1,49,0.00,,-RA,0.00,VWS V14.01,2013-11-23 08:20:00,
2013-11-23 00:30:00,55.0,36.8,30.02,NNE,23,3.8,8.1,50,0.00,,-RA,0.00,VWS V14.01,2013-11-23 08:30:00,
2013-11-23 00:40:00,54.9,36.6,30.02,NE,40,4.8,7.5,50,0.00,,-RA,0.00,VWS V14.01,2013-11-23 08:40:00,
2013-11-23 00:50:00,54.5,36.3,30.02,NNE,31,6.4,7.5,50,0.00,,OVC090,0.00,VWS V14.01,2013-11-23 08:50:00,
2013-11-23 01:00:00,54.5,36.3,29.99,NE,42,5.9,9.9,50,0.00,,OVC090,0.00,VWS V14.01,2013-11-23 09:00:00,
2013-11-23 01:10:00,54.5,36.3,30.02,NNE,15,5.9,12.6,50,0.00,,OVC090,0.00,VWS V14.01,2013-11-23 09:10:00,
2013-11-23 01:20:00,54.3,36.1,30.02,NE,37,7.5,14.2,50,0.00,,OVC090,0.00,VWS V14.01,2013-11-23 09:20:00,
2013-11-23 01:30:00,54.1,35.9,29.99,NE,42,7.0,9.1,50,0.00,,OVC090,0.00,VWS V14.01,2013-11-23 09:30:00,
2013-11-23 01:40:00,54.1,35.9,30.02,NNE,22,12.1,16.9,50,0.00,,BKN090,0.00,VWS V14.01,2013-11-23 09:40:00,
2013-11-23 01:50:00,54.5,35.8,30.02,NNE,26,10.5,15.3,49,0.00,,BKN090,0.00,VWS V14.01,2013-11-23 09:50:00,
2013-11-23 02:00:00,54.3,35.6,30.02,NE,44,11.5,13.2,49,0.00,,BKN090,0.00,VWS V14.01,2013-11-23 10:00:00,
2013-11-23 02:10:00,54.3,35.6,29.99,NE,51,7.5,13.2,49,0.00,,BKN090,0.00,VWS V14.01,2013-11-23 10:10:00,
2013-11-23 02:20:00,54.1,35.4,29.99,NE,42,6.4,10.5,49,0.00,,BKN090,0.00,VWS V14.01,2013-11-23 10:20:00,
2013-11-23 02:30:00,54.0,35.8,30.02,ENE,62,4.3,11.5,50,0.00,,BKN090,0.00,VWS V14.01,2013-11-23 10:30:00,
2013-11-23 02:40:00,53.6,35.4,29.99,NE,44,7.0,13.2,50,0.00,,BKN090,0.00,VWS V14.01,2013-11-23 10:40:00,
2013-11-23 02:50:00,53.6,35.4,29.99,NE,36,7.5,15.3,50,0.00,,BKN090,0.00,VWS V14.01,2013-11-23 10:50:00,
2013-11-23 03:00:00,54.0,35.8,29.99,ENE,74,12.6,13.2,50,0.00,,CLR,0.00,VWS V14.01,2013-11-23 11:00:00,
2013-11-23 03:10:00,54.0,35.8,30.02,NNE,33,5.9,12.6,50,0.00,,CLR,0.00,VWS V14.01,2013-11-23 11:10:00,
2013-11-23 03:20:00,54.1,35.9,30.02,NNE,30,7.0,15.3,50,0.00,,CLR,0.00,VWS V14.01,2013-11-23 11:20:00,
2013-11-23 03:30:00,54.3,36.1,30.02,ENE,67,7.5,12.6,50,0.00,,CLR,0.00,VWS V14.01,2013-11-23 11:30:00,
2013-11-23 03:40:00,54.5,36.3,30.02,ENE,62,6.4,14.8,50,0.00,,CLR,0.00,VWS V14.01,2013-11-23 11:40:00,
2013-11-23 03:50:00,54.5,35.8,30.02,NE,53,9.1,18.0,49,0.00,,CLR,0.00,VWS V14.01,2013-11-23 11:50:00,
2013-11-23 04:00:00,54.5,36.3,30.02,NE,45,10.5,14.8,50,0.00,,CLR,0.00,VWS V14.01,2013-11-23 12:00:00,
2013-11-23 04:10:00,54.3,36.1,30.02,ENE,67,3.8,12.6,50,0.00,,CLR,0.00,VWS V14.01,2013-11-23 12:10:00,
2013-11-23 04:20:00,54.1,35.9,30.02,NNE,31,7.5,15.3,50,0.00,,CLR,0.00,VWS V14.01,2013-11-23 12:20:00,
2013-11-23 04:30:00,54.0,35.8,30.02,North,1,7.0,9.9,50,0.00,,CLR,0.00,VWS V14.01,2013-11-23 12:30:00,
2013-11-23 04:40:00,53.8,36.1,30.02,NNE,23,5.9,7.5,51,0.00,,CLR,0.00,VWS V14.01,2013-11-23 12:40:00,
2013-11-23 04:50:00,53.6,35.9,30.02,NNE,23,4.8,7.5,51,0.00,,BKN110,0.00,VWS V14.01,2013-11-23 12:50:00,
2013-11-23 05:00:00,53.6,35.9,30.02,NNE,12,6.4,8.6,51,0.00,,BKN110,0.00,VWS V14.01,2013-11-23 13:00:00,
2013-11-23 05:10:00,53.4,36.2,30.02,NNE,22,4.8,11.0,52,0.00,,BKN110,0.00,VWS V14.01,2013-11-23 13:10:00,
2013-11-23 05:20:00,53.6,35.9,30.02,NNE,27,13.2,13.2,51,0.00,,BKN110,0.00,VWS V14.01,2013-11-23 13:20:00,
2013-11-23 05:30:00,54.1,36.4,30.05,NNW,343,9.9,15.8,51,0.00,,BKN110,0.00,VWS V14.01,2013-11-23 13:30:00,
2013-11-23 05:40:00,54.3,36.6,30.05,NNE,13,7.0,13.2,51,0.00,,BKN110,0.00,VWS V14.01,2013-11-23 13:40:00,
2013-11-23 05:50:00,54.5,36.3,30.05,North,5,7.5,14.8,50,0.00,,OVC075,0.00,VWS V14.01,2013-11-23 13:50:00,
2013-11-23 06:00:00,54.5,36.3,30.05,NNE,31,7.5,13.2,50,0.00,,OVC075,0.00,VWS V14.01,2013-11-23 14:00:00,
2013-11-23 06:10:00,54.5,36.3,30.05,NNE,29,4.3,12.1,50,0.00,,OVC075,0.00,VWS V14.01,2013-11-23 14:10:00,
2013-11-23 06:20:00,54.3,36.6,30.05,NNE,17,8.6,12.1,51,0.00,,OVC075,0.00,VWS V14.01,2013-11-23 14:20:00,
2013-11-23 06:30:00,54.1,36.4,30.05,North,3,9.1,12.6,51,0.00,,OVC075,0.00,VWS V14.01,2013-11-23 14:30:00,
2013-11-23 06:40:00,54.0,36.3,30.05,North,4,7.5,12.1,51,0.00,,OVC075,0.00,VWS V14.01,2013-11-23 14:40:00,
2013-11-23 06:50:00,53.8,36.1,30.05,NNE,18,9.1,9.9,51,0.00,,BKN070,0.00,VWS V14.01,2013-11-23 14:50:00,
2013-11-23 07:00:00,53.8,36.1,30.05,NNE,22,6.4,11.5,51,0.00,,BKN070,0.00,VWS V14.01,2013-11-23 15:00:00,
2013-11-23 07:10:00,53.8,36.6,30.08,NNE,22,7.0,12.1,52,0.00,,BKN070,0.00,VWS V14.01,2013-11-23 15:10:00,
2013-11-23 07:20:00,53.8,37.1,30.08,NNE,17,5.9,7.5,53,0.00,,BKN070,0.00,VWS V14.01,2013-11-23 15:20:00,
2013-11-23 07:30:00,54.0,37.2,30.08,NNE,30,4.3,9.7,53,0.00,,BKN070,0.00,VWS V14.01,2013-11-23 15:30:00,
2013-11-23 07:40:00,54.3,37.1,30.08,NNE,32,3.8,9.9,52,0.00,,CLR,0.00,VWS V14.01,2013-11-23 15:40:00,
2013-11-23 07:50:00,54.9,37.6,30.08,NNE,21,9.7,10.5,52,0.00,,CLR,0.00,VWS V14.01,2013-11-23 15:50:00,
2013-11-23 08:00:00,55.4,37.6,30.08,NNE,18,7.5,11.5,51,0.00,,CLR,0.00,VWS V14.01,2013-11-23 16:00:00,
2013-11-23 08:10:00,55.8,37.9,30.08,NNE,21,4.3,9.1,51,0.00,,CLR,0.00,VWS V14.01,2013-11-23 16:10:00,
2013-11-23 08:20:00,55.9,38.1,30.08,NNE,13,4.8,7.0,51,0.00,,CLR,0.00,VWS V14.01,2013-11-23 16:20:00,
2013-11-23 08:30:00,55.9,38.1,30.08,North,356,7.0,9.1,51,0.00,,CLR,0.00,VWS V14.01,2013-11-23 16:30:00,
2013-11-23 08:40:00,56.1,38.3,30.08,NNE,26,7.0,7.5,51,0.00,,OVC070,0.00,VWS V14.01,2013-11-23 16:40:00,
2013-11-23 08:50:00,56.3,38.4,30.08,NNE,29,3.8,7.5,51,0.00,,OVC070,0.00,VWS V14.01,2013-11-23 16:50:00,
2013-11-23 09:00:00,56.7,38.8,30.08,NNE,13,7.0,7.5,51,0.00,,OVC070,0.00,VWS V14.01,2013-11-23 17:00:00,
2013-11-23 09:10:00,57.2,38.2,30.08,NE,39,0.0,8.1,49,0.00,,OVC070,0.00,VWS V14.01,2013-11-23 17:10:00,
2013-11-23 09:20:00,57.9,39.4,30.08,East,99,4.8,7.0,50,0.00,,OVC070,0.00,VWS V14.01,2013-11-23 17:20:00,
2013-11-23 09:30:00,59.2,39.5,30.08,NE,40,13.2,13.2,48,0.00,,OVC070,0.00,VWS V14.01,2013-11-23 17:30:00,
2013-11-23 09:40:00,60.4,39.6,30.08,NE,38,11.5,15.8,46,0.00,,OVC070,0.00,VWS V14.01,2013-11-23 17:40:00,
2013-11-23 09:50:00,60.1,38.7,30.08,ENE,57,13.2,14.2,45,0.00,,OVC070,0.00,VWS V14.01,2013-11-23 17:50:00,
2013-11-23 10:00:00,60.4,39.0,30.08,NNE,30,10.5,15.8,45,0.00,,OVC070,0.00,VWS V14.01,2013-11-23 18:00:00,
2013-11-23 10:10:00,61.2,39.7,30.08,NE,46,7.0,17.4,45,0.00,,OVC070,0.00,VWS V14.01,2013-11-23 18:10:00,
2013-11-23 10:20:00,61.9,39.8,30.08,NE,38,9.7,15.8,44,0.00,,OVC070,0.00,VWS V14.01,2013-11-23 18:20:00,
2013-11-23 10:30:00,62.6,40.4,30.08,NE,42,6.4,18.0,44,0.00,,OVC070,0.00,VWS V14.01,2013-11-23 18:30:00,
2013-11-23 10:40:00,63.1,39.7,30.08,ENE,60,13.2,15.8,42,0.00,,OVC070,0.00,VWS V14.01,2013-11-23 18:40:00,
2013-11-23 10:50:00,63.9,39.7,30.08,NNE,19,5.9,15.8,41,0.00,,CLR,0.00,VWS V14.01,2013-11-23 18:50:00,
2013-11-23 11:00:00,65.1,39.6,30.05,NE,47,14.2,18.5,39,0.00,,CLR,0.00,VWS V14.01,2013-11-23 19:00:00,
2013-11-23 11:10:00,65.7,38.7,30.05,North,4,7.0,15.8,37,0.00,,CLR,0.00,VWS V14.01,2013-11-23 19:10:00,
2013-11-23 11:20:00,66.4,39.3,30.05,East,85,17.4,18.0,37,0.00,,CLR,0.00,VWS V14.01,2013-11-23 19:20:00,
2013-11-23 11:30:00,66.7,39.0,30.05,ENE,62,19.1,20.4,36,0.00,,CLR,0.00,VWS V14.01,2013-11-23 19:30:00,
2013-11-23 11:40:00,66.7,38.2,30.05,East,88,9.1,22.5,35,0.00,,CLR,0.00,VWS V14.01,2013-11-23 19:40:00,
2013-11-23 11:50:00,66.2,37.8,30.05,ENE,62,15.3,16.4,35,0.00,,CLR,0.00,VWS V14.01,2013-11-23 19:50:00,
2013-11-23 12:00:00,66.2,37.8,30.05,ENE,72,10.5,18.0,35,0.00,,CLR,0.00,VWS V14.01,2013-11-23 20:00:00,
2013-11-23 12:10:00,65.5,37.1,30.05,North,9,14.8,19.6,35,0.00,,CLR,0.00,VWS V14.01,2013-11-23 20:10:00,
2013-11-23 12:20:00,65.3,37.7,30.05,East,82,15.8,20.1,36,0.00,,CLR,0.00,VWS V14.01,2013-11-23 20:20:00,
2013-11-23 12:30:00,65.5,37.8,30.05,ENE,68,9.1,27.4,36,0.00,,CLR,0.00,VWS V14.01,2013-11-23 20:30:00,
2013-11-23 12:40:00,65.5,37.1,30.02,NE,37,14.8,23.6,35,0.00,,CLR,0.00,VWS V14.01,2013-11-23 20:40:00,
2013-11-23 12:50:00,65.8,37.5,30.02,NNE,33,9.9,22.5,35,0.00,,FEW110,0.00,VWS V14.01,2013-11-23 20:50:00,
2013-11-23 13:00:00,66.7,38.2,30.05,NE,56,13.2,16.9,35,0.00,,FEW110,0.00,VWS V14.01,2013-11-23 21:00:00,
2013-11-23 13:10:00,67.6,39.0,30.05,NE,51,19.1,19.1,35,0.00,,FEW110,0.00,VWS V14.01,2013-11-23 21:10:00,
2013-11-23 13:20:00,68.0,38.6,30.05,ESE,102,9.9,20.1,34,0.00,,FEW110,0.00,VWS V14.01,2013-11-23 21:20:00,
2013-11-23 13:30:00,68.0,38.6,30.05,NE,51,4.8,24.2,34,0.00,,FEW110,0.00,VWS V14.01,2013-11-23 21:30:00,
2013-11-23 13:40:00,67.8,38.5,30.05,NNE,31,9.1,19.6,34,0.00,,FEW110,0.00,VWS V14.01,2013-11-23 21:40:00,
2013-11-23 13:50:00,67.8,38.5,30.05,NNE,14,14.8,19.6,34,0.00,,FEW110,0.00,VWS V14.01,2013-11-23 21:50:00,
2013-11-23 14:00:00,67.6,38.3,30.02,NE,39,8.6,20.9,34,0.00,,CLR,0.00,VWS V14.01,2013-11-23 22:00:00,
2013-11-23 14:10:00,66.9,37.7,30.02,ENE,59,9.7,20.9,34,0.00,,CLR,0.00,VWS V14.01,2013-11-23 22:10:00,
2013-11-23 14:20:00,67.1,37.8,30.02,NNE,28,9.9,23.6,34,0.00,,CLR,0.00,VWS V14.01,2013-11-23 22:20:00,
2013-11-23 14:30:00,66.4,37.2,30.02,NNE,27,13.2,25.2,34,0.00,,CLR,0.00,VWS V14.01,2013-11-23 22:30:00,
2013-11-23 14:40:00,64.8,36.5,30.05,ENE,60,12.6,23.6,35,0.00,,CLR,0.00,VWS V14.01,2013-11-23 22:40:00,
2013-11-23 14:50:00,65.1,36.8,30.05,ENE,62,12.6,20.4,35,0.00,,FEW120,0.00,VWS V14.01,2013-11-23 22:50:00,
2013-11-23 15:00:00,65.1,36.8,30.05,East,91,13.2,21.5,35,0.00,,FEW120,0.00,VWS V14.01,2013-11-23 23:00:00,
2013-11-23 15:10:00,64.9,36.7,30.05,ENE,65,13.2,18.5,35,0.00,,FEW120,0.00,VWS V14.01,2013-11-23 23:10:00,
2013-11-23 15:20:00,64.4,36.2,30.05,NE,53,12.6,20.9,35,0.00,,FEW120,0.00,VWS V14.01,2013-11-23 23:20:00,
2013-11-23 15:30:00,63.9,36.4,30.05,NE,50,18.0,19.6,36,0.00,,FEW120,0.00,VWS V14.01,2013-11-23 23:30:00,
2013-11-23 15:40:00,63.7,36.2,30.05,ENE,74,6.4,18.0,36,0.00,,CLR,0.00,VWS V14.01,2013-11-23 23:40:00,
2013-11-23 15:50:00,63.5,36.1,30.05,NNE,23,7.5,18.0,36,0.00,,CLR,0.00,VWS V14.01,2013-11-23 23:50:00,
2013-11-23 16:00:00,63.3,35.9,30.05,NE,37,6.4,16.9,36,0.00,,CLR,0.00,VWS V14.01,2013-11-24 00:00:00,
2013-11-23 16:10:00,62.8,36.2,30.05,NE,42,10.5,13.7,37,0.00,,CLR,0.00,VWS V14.01,2013-11-24 00:10:00,
2013-11-23 16:20:00,62.4,35.8,30.05,ENE,65,7.0,13.7,37,0.00,,CLR,0.00,VWS V14.01,2013-11-24 00:20:00,
2013-11-23 16:30:00,62.1,36.2,30.05,East,79,3.2,12.6,38,0.00,,CLR,0.00,VWS V14.01,2013-11-24 00:30:00,
2013-11-23 16:40:00,61.3,36.2,30.05,ESE,105,5.9,10.5,39,0.00,,CLR,0.00,VWS V14.01,2013-11-24 00:40:00,
2013-11-23 16:50:00,60.6,36.8,30.05,NNE,16,3.8,9.7,41,0.00,,CLR,0.00,VWS V14.01,2013-11-24 00:50:00,
2013-11-23 17:00:00,60.3,36.5,30.05,NNE,20,3.8,7.5,41,0.00,,CLR,0.00,VWS V14.01,2013-11-24 01:00:00,
2013-11-23 17:10:00,59.9,37.4,30.08,NNE,15,3.2,3.8,43,0.00,,CLR,0.00,VWS V14.01,2013-11-24 01:10:00,
2013-11-23 17:20:00,59.4,37.5,30.08,NW,322,4.3,4.8,44,0.00,,CLR,0.00,VWS V14.01,2013-11-24 01:20:00,
2013-11-23 17:30:00,59.2,37.3,30.08,NNW,334,3.2,7.0,44,0.00,,CLR,0.00,VWS V14.01,2013-11-24 01:30:00,
2013-11-23 17:40:00,58.8,37.5,30.08,NNW,342,3.2,7.5,45,0.00,,CLR,0.00,VWS V14.01,2013-11-24 01:40:00,
2013-11-23 17:50:00,58.5,37.2,30.08,NNW,327,4.8,6.4,45,0.00,,CLR,0.00,VWS V14.01,2013-11-24 01:50:00,
2013-11-23 18:00:00,58.5,37.2,30.08,North,1,4.3,9.7,45,0.00,,CLR,0.00,VWS V14.01,2013-11-24 02:00:00,
2013-11-23 18:10:00,58.3,37.0,30.08,North,0,0.0,6.4,45,0.00,,CLR,0.00,VWS V14.01,2013-11-24 02:10:00,
2013-11-23 18:20:00,57.9,37.3,30.08,NNW,347,4.3,6.4,46,0.00,,CLR,0.00,VWS V14.01,2013-11-24 02:20:00,
2013-11-23 18:30:00,57.7,37.1,30.11,NNE,15,3.8,7.5,46,0.00,,CLR,0.00,VWS V14.01,2013-11-24 02:30:00,
2013-11-23 18:40:00,57.4,36.8,30.11,North,1,3.2,5.9,46,0.00,,CLR,0.00,VWS V14.01,2013-11-24 02:40:00,
2013-11-23 18:50:00,57.2,37.2,30.11,North,9,0.0,4.8,47,0.00,,CLR,0.00,VWS V14.01,2013-11-24 02:50:00,
2013-11-23 19:00:00,56.8,37.4,30.11,North,0,3.8,7.5,48,0.00,,CLR,0.00,VWS V14.01,2013-11-24 03:00:00,
2013-11-23 19:10:00,56.3,37.4,30.11,North,0,3.8,7.5,49,0.00,,CLR,0.00,VWS V14.01,2013-11-24 03:10:00,
2013-11-23 19:20:00,56.1,37.2,30.11,North,11,4.3,7.5,49,0.00,,CLR,0.00,VWS V14.01,2013-11-24 03:20:00,
2013-11-23 19:30:00,55.8,36.9,30.11,North,10,4.3,5.9,49,0.00,,CLR,0.00,VWS V14.01,2013-11-24 03:30:00,
2013-11-23 19:40:00,55.6,37.2,30.11,North,9,4.3,4.8,50,0.00,,CLR,0.00,VWS V14.01,2013-11-24 03:40:00,
2013-11-23 19:50:00,55.2,37.4,30.11,NNE,30,2.7,6.4,51,0.00,,CLR,0.00,VWS V14.01,2013-11-24 03:50:00,
2013-11-23 20:00:00,54.9,37.1,30.11,NNE,26,0.0,6.4,51,0.00,,CLR,0.00,VWS V14.01,2013-11-24 04:00:00,
2013-11-23 20:10:00,54.5,36.8,30.11,ENE,60,3.2,4.3,51,0.00,,CLR,0.00,VWS V14.01,2013-11-24 04:10:00,
2013-11-23 20:20:00,54.1,36.9,30.11,NE,52,3.2,4.3,52,0.00,,CLR,0.00,VWS V14.01,2013-11-24 04:20:00,
2013-11-23 20:30:00,54.0,36.8,30.11,NE,55,2.7,5.9,52,0.00,,CLR,0.00,VWS V14.01,2013-11-24 04:30:00,
2013-11-23 20:40:00,53.8,37.1,30.11,ENE,61,6.4,6.4,53,0.00,,CLR,0.00,VWS V14.01,2013-11-24 04:40:00,
2013-11-23 20:50:00,53.6,36.9,30.11,NE,44,3.8,7.0,53,0.00,,CLR,0.00,VWS V14.01,2013-11-24 04:50:00,
2013-11-23 21:00:00,53.8,37.1,30.11,ENE,66,2.7,8.1,53,0.00,,CLR,0.00,VWS V14.01,2013-11-24 05:00:00,
2013-11-23 21:10:00,53.6,36.4,30.11,East,90,0.0,5.9,52,0.00,,CLR,0.00,VWS V14.01,2013-11-24 05:10:00,
2013-11-23 21:20:00,53.8,36.6,30.11,East,99,3.2,6.4,52,0.00,,CLR,0.00,VWS V14.01,2013-11-24 05:20:00,
2013-11-23 21:30:00,53.8,36.6,30.11,East,89,0.0,7.0,52,0.00,,CLR,0.00,VWS V14.01,2013-11-24 05:30:00,
2013-11-23 21:40:00,53.8,36.6,30.11,ENE,59,4.3,9.9,52,0.00,,CLR,0.00,VWS V14.01,2013-11-24 05:40:00,
2013-11-23 21:50:00,55.2,37.4,30.11,North,8,7.0,9.9,51,0.00,,CLR,0.00,VWS V14.01,2013-11-24 05:50:00,
2013-11-23 22:00:00,55.8,36.9,30.11,NNE,17,11.5,11.5,49,0.00,,CLR,0.00,VWS V14.01,2013-11-24 06:00:00,
2013-11-23 22:10:00,56.3,36.9,30.11,NNE,13,7.0,12.1,48,0.00,,CLR,0.00,VWS V14.01,2013-11-24 06:10:00,
2013-11-23 22:20:00,56.7,37.2,30.11,NNE,28,6.4,13.2,48,0.00,,CLR,0.00,VWS V14.01,2013-11-24 06:20:00,
2013-11-23 22:30:00,56.8,36.8,30.11,NNE,28,6.4,14.2,47,0.00,,CLR,0.00,VWS V14.01,2013-11-24 06:30:00,
2013-11-23 22:40:00,56.7,37.2,30.11,North,10,7.5,9.9,48,0.00,,CLR,0.00,VWS V14.01,2013-11-24 06:40:00,
2013-11-23 22:50:00,56.5,37.0,30.11,NNE,27,7.0,9.9,48,0.00,,CLR,0.00,VWS V14.01,2013-11-24 06:50:00,
2013-11-23 23:00:00,56.7,37.2,30.14,North,4,6.4,9.7,48,0.00,,CLR,0.00,VWS V14.01,2013-11-24 07:00:00,
2013-11-23 23:10:00,56.7,37.2,30.14,NNE,32,3.8,7.5,48,0.00,,CLR,0.00,VWS V14.01,2013-11-24 07:10:00,
2013-11-23 23:20:00,56.5,37.0,30.14,NNE,22,0.0,7.0,48,0.00,,CLR,0.00,VWS V14.01,2013-11-24 07:20:00,
2013-11-23 23:30:00,56.1,37.2,30.14,NE,48,3.2,7.5,49,0.00,,CLR,0.00,VWS V14.01,2013-11-24 07:30:00,
2013-11-23 23:40:00,56.3,37.4,30.14,North,7,5.9,9.1,49,0.00,,CLR,0.00,VWS V14.01,2013-11-24 07:40:00,
2013-11-23 23:50:00,56.3,36.9,30.14,NNE,25,7.5,9.1,48,0.00,,CLR,0.00,VWS V14.01,2013-11-24 07:50:00,